PEGASUS DEB, 24126

Orbit data source: Space-Track

PEGASUS DEB, 24126 is space debris in LEO originally from a launch on Thu, 19 May 1994 UTC launched from the Air Force Western Test Range (AFWTR). Debris objects in space refer to the collection of defunct objects orbiting the Earth. Examples of debris include non-operational satellites, rocket bodies, and fragments generated from explosions, collisions, or faulty payload assembly.

Loading next visibility...
Identifier
24126, 1994-029FZ
Orbit
LEO
Country
Flag of USUS
Related business
Manufacturer
Unknown
Mission
Spacecraft
Bus & Motor
Unknown
Mass
Unknown
Launch date (UTC)
1994-05-19 (32 years ago)
Launch vehicle
Unknown
Launch site
Air Force Western Test Range (AFWTR)
Object type
Payload
Rocket body
Debris
Shape & HBR
Unknown shape, 0.1 m
Radar Cross Section
Small (<0.1 m²)

Expand to show TLE details & history
Last TLE update: 4 hours ago

TLE from 4 hours ago
0 PEGASUS DEB
1 24126U 94029FZ  26119.19829955  .00005079  00000-0  99064-3 0  9998
2 24126  81.8030  30.1133 0271066 319.8972 192.9816 14.42014691546901
Epoch: 2026-04-29T04:45Z
TLE epoch observation values (Epoch: 2026-04-29T04:45:33.081Z)
Latitude
27.52733°
Longitude
-82.72037°
Altitude
943.878 km
Speed
7.284 km/s
True Right ascension
13h 43m 19s
True Declination
27° 23' 25"
Sunlit
Object was in full shadow at epoch
Visualization orbit readout
Latitude
Unknown
Longitude
Unknown
Altitude
Unknown
Speed
Unknown
Apparent Right ascension
Unknown
Apparent Declination
Unknown
Sunlit
N/A
Visualization observer readout
Local Sidereal Time
16:26:56
Azimuth
Unknown
Elevation
Unknown
Doppler factor
Unknown
Orbital elements
Apogee altitude
942.143 km
Perigee altitude
555.76 km
Semi-major axis
7,127.089 km
Eccentricity
0.02711
Inclination
81.803°
RAAN
30.1133°
Arg. of periapsis
319.8972°
True anomaly
192.30618°
Mean anomaly
192.9816°
Eccentric anomaly
192.6417°
Mean motion
3.60724 °/min
Orbital period
99.8 mins
BSTAR
0.00099064
Loading maneuver chart data...
Computing Atmospheric mass density...
Loading historical data...
Loading historical data...
Loading historical data...
Loading historical data...
Loading historical data...
Loading historical data...
Loading historical data...

Documentation

Showing up to 5 results
|